Location: Lecco
(45.8566°N, 9.3977°E)
Time: 05:24:48
(UTC+02:00)

A-11 Canister half - Pass Details

Date: 18 August 2020
Orbit: 1514 x 1686 km, 47.2° (Epoch: 21 September)

Event Time Altitude Azimuth Distance (km) Brightness Sun altitude
Rises 00:24:56 0° 292° (WNW) 4,852 12.1 -29.5°
Reaches altitude 10° 00:28:34 10° 282° (WNW) 3,886 11.4 -29.7°
Maximum altitude 00:36:36 29° 228° (SW) 2,715 10.0 -30.1°
Enters shadow 00:36:48 29° 226° (SW) 2,717 10.0 -30.1°
